STARLINK-4559 (53574 NORAD) Tracking and Keplerian Element Data

This shows tracking and keplerian element data for the satellite.

Feedback or suggestion? Click here.




ElementValue
Catalog53574
NameSTARLINK-4559
Epoch Orbit1461
Epoch Day325.25001157
Epoch Year2022
RAAN60.7685
Inclination53.2178
Eccentricity0.0001604
Argument of Perigee58.5051
Mean Anonmoly162.7648
Mean Motion15.08818583
Decay Rate0.00035762
L11 53574U 22101AZ 22325.25001157 .00035762 00000+0 22550-2 0 9993
L22 53574 53.2178 60.7685 0001604 58.5051 162.7648 15.08818583 14612



Live tracking and technical data element details for STARLINK-4559 (NORAD 53574). STARLINK-4559 can be tracked NOW for your location showing map with azimuth and elevation plus other details from your city location.







IsCatalogInMostPopularTable: catalog: 53574, numindb: 5
Update: records affected: 1



GetName: 53574 STARLINK-4559

Hit Count: updated at: Tue, 29 Nov 2022 01:03:42 GMT